This demonstration page uses our WeatherBlox Daily Observations layout. Learn more.

Left ArrowRight Arrow

Hourly Observations for November 26, 2016

Temp ( °F °C ) Dew Point ( °F °C ) Humidity (%) Winds ( mph kmh ) Pressure ( in mb ) Visibility ( mi km ) Precip ( " mm )
12:15 am 00:15 Clear 36 2.2 22 -5.8 56 56 SSW 10 17 30.27 1025 10 16 0.00 0.00
12:35 am 00:35 Clear 36 2.4 22 -5.5 56 56 SSW 12 19 30.27 1025 10 16 0.00 0.00
12:55 am 00:55 Clear 37 2.5 22 -5.6 56 56 SSW 9 15 30.24 1024 10 16 0.00 0.00
1:15 am 01:15 Clear 36 2.2 22 -5.6 57 57 SSW 14 22 30.24 1024 10 16 0.00 0.00
1:35 am 01:35 Clear 36 2 22 -5.7 57 57 SSW 14 22 30.24 1024 10 16 0.00 0.00
1:55 am 01:55 Clear 35 1.5 21 -6 58 58 SSW 10 17 30.21 1023 10 16 0.00 0.00
2:15 am 02:15 Clear 35 1.5 22 -5.8 59 59 SSW 8 13 30.21 1023 10 16 0.00 0.00
2:35 am 02:35 Clear 34 1.1 21 -6 60 60 SSW 10 17 30.21 1023 10 16 0.00 0.00
2:55 am 02:55 Clear 33 0.7 21 -6 61 61 SSW 9 15 30.24 1024 10 16 0.00 0.00
3:15 am 03:15 Clear 33 0.3 21 -6 63 63 SSW 7 11 30.24 1024 10 16 0.00 0.00
3:35 am 03:35 Clear 32 0 21 -6 64 64 SSW 3 6 30.24 1024 10 16 0.00 0.00
3:55 am 03:55 Clear 32 -0.2 21 -6 65 65 S 5 7 30.24 1024 10 16 0.00 0.00
4:15 am 04:15 Clear 31 -0.6 21 -6.1 67 67 SSW 8 13 30.24 1024 10 16 0.00 0.00
4:35 am 04:35 Clear 31 -0.5 21 -6 67 67 SSW 8 13 30.24 1024 10 16 0.00 0.00
4:55 am 04:55 Clear 30 -0.9 21 -6.1 68 68 SSW 3 6 30.24 1024 10 16 0.00 0.00
5:15 am 05:15 Clear 30 -1.1 21 -6.3 68 68 S 5 7 30.24 1024 10 16 0.00 0.00
5:35 am 05:35 Clear 29 -1.9 20 -6.5 71 71 SW 6 9 30.24 1024 10 16 0.00 0.00
5:55 am 05:55 Clear 28 -2 20 -6.6 71 71 SW 5 7 30.24 1024 10 16 0.00 0.00
6:15 am 06:15 Clear 28 -2.5 20 -6.7 73 73 SW 6 9 30.27 1025 10 16 0.00 0.00
6:35 am 06:35 Clear 26 -3.5 19 -7 77 77 SW 8 13 30.27 1025 10 16 0.00 0.00
6:55 am 06:55 Clear 26 -3.2 19 -7 75 75 WSW 7 11 30.27 1025 10 16 0.00 0.00
7:15 am 07:15 Clear 28 -2.5 20 -6.5 74 74 WSW 7 11 30.27 1025 10 16 0.00 0.00
7:35 am 07:35 Clear 28 -2.2 21 -6.2 74 74 WSW 7 11 30.24 1024 10 16 0.00 0.00
7:55 am 07:55 Sunny 28 -2.5 20 -6.5 74 74 SW 8 13 30.27 1025 10 16 0.00 0.00
8:15 am 08:15 Sunny 27 -3 20 -6.5 77 77 SW 5 7 30.27 1025 10 16 0.00 0.00
8:35 am 08:35 Sunny 28 -2.5 21 -6.3 75 75 WSW 6 9 30.27 1025 10 16 0.00 0.00
8:55 am 08:55 Sunny 30 -1.1 22 -5.8 71 71 W 8 13 30.24 1024 10 16 0.00 0.00
9:15 am 09:15 Sunny 32 0.1 22 -5.5 66 66 WSW 5 7 30.24 1024 10 16 0.00 0.00
9:35 am 09:35 Sunny 34 1.1 22 -5.4 62 62 WSW 3 6 30.21 1023 10 16 0.00 0.00
9:55 am 09:55 Sunny 36 2.2 23 -4.9 60 60 W 5 7 30.21 1023 10 16 0.00 0.00
10:15 am 10:15 Sunny 39 3.7 24 -4.2 57 57 W 3 6 30.21 1023 10 16 0.00 0.00
10:35 am 10:35 Sunny 43 6.1 26 -3.6 50 50 WSW 3 6 30.18 1022 10 16 0.00 0.00
10:55 am 10:55 Sunny 45 7.2 26 -3.4 47 47 W 5 7 30.15 1021 10 16 0.00 0.00
11:15 am 11:15 Sunny 47 8.4 27 -2.9 45 45 W 3 6 30.15 1021 10 16 0.00 0.00
11:35 am 11:35 Sunny 49 9.3 27 -2.7 43 43 Calm 30.15 1021 10 16 0.00 0.00
11:55 am 11:55 Sunny 50 9.9 28 -2.3 43 43 W 3 6 30.12 1020 10 16 0.00 0.00
12:15 pm 12:15 Sunny 51 10.8 28 -2.1 41 41 W 6 9 30.09 1019 10 16 0.00 0.00
12:35 pm 12:35 Sunny 53 11.4 29 -1.6 41 41 W 5 7 30.09 1019 10 16 0.00 0.00
12:55 pm 12:55 Sunny 53 11.9 28 -2.1 38 38 SW 3 6 30.09 1019 10 16 0.00 0.00
1:15 pm 13:15 Sunny 53 11.9 29 -1.5 40 40 SW 6 9 30.06 1018 10 16 0.00 0.00
1:35 pm 13:35 Sunny 53 11.6 28 -2 39 39 WSW 5 7 30.06 1018 10 16 0.00 0.00
1:55 pm 13:55 Sunny 54 12 28 -2.4 37 37 WSW 3 6 30.06 1018 10 16 0.00 0.00
2:15 pm 14:15 Sunny 54 12 28 -2.3 37 37 SW 3 6 30.06 1018 10 16 0.00 0.00
2:35 pm 14:35 Sunny 54 12.2 28 -2.1 37 37 SW 6 9 30.03 1017 10 16 0.00 0.00
2:55 pm 14:55 Sunny 55 12.8 26 -3.1 33 33 WSW 3 6 30.03 1017 10 16 0.00 0.00
3:15 pm 15:15 Sunny 56 13.1 26 -3.6 31 31 WSW 3 6 30.00 1016 10 16 0.00 0.00
3:35 pm 15:35 Sunny 56 13.2 26 -3.6 31 31 SW 5 7 30.00 1016 10 16 0.00 0.00
3:55 pm 15:55 Sunny 55 13 26 -3.5 32 32 SW 3 6 30.00 1016 10 16 0.00 0.00
4:15 pm 16:15 Sunny 55 12.6 26 -3.3 33 33 SSW 5 7 30.03 1017 10 16 0.00 0.00
4:35 pm 16:35 Sunny 53 11.5 27 -3 36 36 SSW 5 7 30.03 1017 10 16 0.00 0.00
4:55 pm 16:55 Sunny 50 10 27 -2.9 41 41 SSW 6 9 30.00 1016 10 16 0.00 0.00
5:15 pm 17:15 Clear 46 8 25 -4 43 43 SSW 7 11 30.03 1017 10 16 0.00 0.00
5:35 pm 17:35 Clear 43 6.2 26 -3.6 50 50 SSW 7 11 30.03 1017 10 16 0.00 0.00
5:55 pm 17:55 Clear 44 6.4 25 -3.8 48 48 SSW 7 11 30.03 1017 10 16 0.00 0.00
6:15 pm 18:15 Clear 41 5.2 26 -3.5 54 54 SSW 7 11 30.06 1018 10 16 0.00 0.00
6:35 pm 18:35 Clear 42 5.3 26 -3.4 54 54 SSW 8 13 30.06 1018 10 16 0.00 0.00
6:55 pm 18:55 Clear 41 5 26 -3.5 55 55 SSW 8 13 30.06 1018 10 16 0.00 0.00
7:15 pm 19:15 Clear 40 4.5 26 -3.6 56 56 SSW 7 11 30.06 1018 10 16 0.00 0.00
7:35 pm 19:35 Clear 38 3.2 25 -4.1 59 59 S 6 9 30.06 1018 10 16 0.00 0.00
7:55 pm 19:55 Clear 38 3.6 25 -4 58 58 SSW 9 15 30.06 1018 10 16 0.00 0.00
8:15 pm 20:15 Clear 34 0.9 23 -5.2 64 64 Calm 30.06 1018 10 16 0.00 0.00
8:35 pm 20:35 Clear 36 2.3 24 -4.2 63 63 S 6 9 30.06 1018 10 16 0.00 0.00
8:55 pm 20:55 Clear 32 0.1 23 -5 69 69 Calm 30.06 1018 10 16 0.00 0.00
9:15 pm 21:15 Clear 33 0.3 23 -5.1 67 67 Calm 30.06 1018 10 16 0.00 0.00
9:35 pm 21:35 Clear 32 0.1 23 -5.2 68 68 Calm 30.03 1017 10 16 0.00 0.00
9:55 pm 21:55 Clear 30 -1.2 22 -5.6 72 72 Calm 30.06 1018 10 16 0.00 0.00
10:15 pm 22:15 Clear 30 -1.2 23 -5 76 76 Calm 30.06 1018 10 16 0.00 0.00
10:35 pm 22:35 Clear 31 -0.8 23 -5.2 72 72 SSW 3 6 30.00 1016 10 16 0.00 0.00
10:55 pm 22:55 Clear 31 -0.3 23 -4.8 72 72 S 5 7 30.00 1016 10 16 0.00 0.00
11:15 pm 23:15 Clear 29 -1.9 22 -5.5 77 77 S 3 6 30.03 1017 10 16 0.00 0.00
11:35 pm 23:35 Clear 30 -1.1 22 -5.3 73 73 SSE 6 9 30.00 1016 10 16 0.00 0.00
11:55 pm 23:55 Clear 28 -2.5 22 -5.7 79 79 SSE 6 9 30.00 1016 10 16 0.00 0.00

Powered by AerisWeather